Home > Weather > Westerland > Past weeks

Flag for Germany Past Weather in Westerland, Schleswig-Holstein, Germany — Yesterday and Last 2 Weeks

Now
79 °F

Passing clouds.


Feels Like: 81 °F
Forecast: 65 / 69 °F
Wind: 7 mph from Southwest

Location: Westerland / Sylt

Current Time: Jul 24, 2016 at 4:44:18 PM

Latest Report: Jul 24, 2016 at 3:50 PM


Visibility: N/A

Pressure: 30.07 "Hg

Humidity: 61%

Dew Point: 64 °F

Location of WesterlandLocation

Past Weather in Westerland — Graph

°F

Westerland Temperature Yesterday

Maximum temperature yesterday: 77 °F (at 5:50 PM)
Minimum temperature yesterday: 66 °F (at 6:50 AM)
Average temperature yesterday: 72 °F

High & Low Weather Summary for the Past Weeks

 TemperatureHumidityPressure
High81 °F (Jul 20, 3:20 PM)100% (Jul 14, 10:20 AM)30.18 "Hg (Jul 14, 10:20 AM)
Low55 °F (Jul 14, 9:50 AM)54% (Jul 20, 5:20 PM)29.62 "Hg (Jul 11, 9:20 AM)
Average66 °F82%29.99 "Hg
* Reported Jul 9 2:20 PM — Jul 24 2:50 PM, Westerland, Weather by CustomWeather, © 2016

Note: Actual official high and low records may vary slightly from our data, if they occured in-between our weather recording intervals... More about our weather records

Advertising

Westerland Weather History for the Previous 24 Hours

Scroll right to see more
 ConditionsComfort  
Time TempWeatherWind HumidityBarometerVisibility
2:50 PM
Sun, Jul 24
77 °FPassing clouds.7 mph61%30.09 "HgN/A
2:20 PM79 °FPassing clouds.7 mph65%30.09 "HgN/A
1:50 PM77 °FPassing clouds.5 mph65%30.09 "HgN/A
1:20 PM75 °FSunny.8 mph74%30.09 "Hg10 mi
12:50 PM75 °FSunny.9 mph74%30.09 "Hg10 mi
12:20 PM79 °FPassing clouds.6 mph58%30.09 "HgN/A
11:50 AM77 °FPassing clouds.6 mph61%30.09 "HgN/A
11:20 AM77 °FPassing clouds.7 mph54%30.09 "HgN/A
10:50 AM75 °FPassing clouds.8 mph69%30.09 "HgN/A
10:20 AM75 °FPassing clouds.6 mph61%30.09 "HgN/A
9:50 AM73 °FPassing clouds.6 mph69%30.09 "HgN/A
9:20 AM73 °FPassing clouds.6 mph65%30.09 "HgN/A
8:50 AM72 °FSunny.6 mph69%30.09 "Hg10 mi
8:20 AM70 °FSunny.7 mph78%30.09 "Hg10 mi
10:20 PM
Sat, Jul 23
68 °FSunny.6 mph88%30.09 "Hg10 mi
9:50 PM68 °FSunny.3 mph83%30.09 "Hg10 mi
9:20 PM68 °FSunny.3 mph88%30.09 "Hg10 mi
8:50 PM70 °FSunny.5 mph83%30.09 "Hg10 mi
8:20 PM70 °FSunny.6 mph83%30.09 "Hg10 mi
7:50 PM72 °FSunny.6 mph78%30.09 "Hg10 mi
7:20 PM75 °FPassing clouds.3 mph69%30.09 "HgN/A
6:50 PM73 °FPassing clouds.5 mph74%30.09 "HgN/A
6:20 PM73 °FSunny.7 mph78%30.09 "Hg10 mi
5:50 PM77 °FPassing clouds.5 mph65%30.09 "HgN/A
5:20 PM75 °FPassing clouds.6 mph74%30.09 "HgN/A
4:50 PM73 °FPassing clouds.7 mph78%30.09 "HgN/A
4:20 PM75 °FPassing clouds.7 mph74%30.09 "HgN/A
Weather by CustomWeather, © 2016

See weather overviewHow to use our weather pages